Zurück zum Katalog

STARLINK-3230

AktivKommunikationVLEO
NORAD 50845·PAYLOAD·🇺🇸 United States

Gestartet Jan 6, 2022 von Cape Canaveral Space Force Station

Loading…

Nächste Überflüge (nächste 24 Stunden)

TLE

AktuellSource: CelesTrak SupGP

Epoche: Sep 15, 2026, 01:41 UTC

1 50845C 22001AU  26258.07062500 -.00016992  00000+0 -54631-3 0  2588
2 50845  53.1603  35.7737 0001154  76.9380 152.6947 15.31716964    16

Verfolge STARLINK-3230 in Echtzeit mit AllMySat

Download on the App Store